FENGYUN 1C DEB

Satellite information

Favourite Embed

Satellite Type and Status

DEBRISIN ORBIT

Key statistics

Satellite FENGYUN 1C DEB at a glance.

Uptime

9659

Days in orbit

Revolutions

≈ 14.0

Per day

Orbit

SSO

Sun Synchronous Orbit

Inclination

99.2

Latest

Satellite identification and parameters

Extended collection of information and parameters for FENGYUN 1C DEB.

Object identification

Identified? True

Debris? True

Object name: FENGYUN 1C DEB

International designator: 1999-025DGY

Object number (NORAD): 33711

Object ID (CCSDS): 33711

Country: PEOPLES REPUBLIC OF CHINA (PRC)

Current information (Y/N): Y

RCS size: SMALL

Orbital parameters

Period: 102.8 minutes

Inclination: 99.1948 deg

SMA: 7269.219 km

Apoapsis: 962.171 km

Periapsis: 819.997 km

RAAN: 345.0953 deg

Eccentricy: 0.00977913

Argument of periapsis: 197.012 deg

Mean anomaly: 341.0015 deg

Mean motion: 14.00783834 rev/day

Mean motion (dot): 0.0000128 rev/day2

B* drag term: 0.00085200971 1/REarth

Two-line elements (TLE)

Creation date: Oct. 19, 2025, 2:20 a.m.

Reference frame: TEME

Reference center: EARTH

Epoch: Oct. 18, 2025, 10:23 p.m. UTC

TLE line 0: 0 FENGYUN 1C DEB

TLE line 1: 1 33711U 99025DGY 25291.93321453 .00001280 00000-0 85201-3 0 9999

TLE line 2: 2 33711 99.1948 345.0953 0097791 197.0120 341.0015 14.00783834911642

Live tracking on map

Real-time ground track for satellite FENGYUN 1C DEB.

In-orbit conjunctions

A list of the most updated potential collisions computed for object FENGYUN 1C DEB.

Target Orbit TCA Probability of collision Miss distance Type
COSMOS 2237 LEO 2025-06-07 22:01:25 0.0004925236 112.0 (m) PAYLOAD
SL-8 R/B LEO 2025-04-23 13:14:54 0.0001358304 49.0 (m) ROCKET BODY
DMSP 5D-2 F8 (USA 26) SSO 2024-11-13 12:55:15 0.0001251221 857.0 (m) PAYLOAD
COSMOS 2181 LEO 2024-08-26 21:41:33 0.0005429036 182.0 (m) PAYLOAD
SL-16 R/B LEO 2024-08-19 22:14:27 0.0001156416 108.0 (m) ROCKET BODY

Associated space launch

Chinese polar orbiting meteorological satellite

FENGYUN 1C DEB was lifted into orbit during the mission ‘Long March 4B | Feng Yun 1C’, on board a Long March 4B space rocket.

The launch took place on May 10, 1999, 1:33 a.m. from Launch Complex 7.

For more information about the launch, click the button.

Launch to space Long March 4B | Feng Yun 1C
Long March 4B | Feng Yun 1C

Agency: N/A

Status: Launch Successful

Launch date: May 10, 1999, 1:33 a.m. UTC

Rocket: Long March 4B

Launch pad: Launch Complex 7

Location: Taiyuan Satellite Launch Center, People's Republic of China

...

Latest news about this satellite

There are no fresh news available about this satellite. Check back as we update our databases every day.


Newsletter sign-up

Weekly statistics, charts and insights to help you stay on top of the space industry.